Regional Weather Roundup
Issued by NWS Goodland, KS

Home | Current Version | Previous Version | Graphics & Text | Print | Product List | Glossary On
Versions: 1 2 3 4 5 6 7 8 9 10 11 12 13 14 15 16 17 18 19 20 21 22 23 24 25 26 27 28 29 30 31 32 33 34 35 36 37 38 39 40 41 42 43 44 45 46 47 48 49 50
000
ASUS43 KGLD 130208
RWRGLD

GOODLAND FORECAST AREA HOURLY WEATHER ROUNDUP
NATIONAL WEATHER SERVICE GOODLAND KS
700 PM MST TUE DEC 12 2017

...OFFICIAL OBSERVATIONS...

CITY           SKY/WX    TMP DP  RH WIND       PRES   REMARKS
GOODLAND KS    CLEAR     45  16  31 SW12      30.04F
HILL CITY KS   CLEAR     42  18  37 W6        29.99F
IMPERIAL NEB   CLEAR     43  17  35 W10       30.00F
MCCOOK NEB     CLEAR     42  19  39 W8        29.98F
AKRON CO       CLOUDY    44  13  28 MISG      30.08F
BURLINGTON CO  CLEAR     39  15  37 SW9       30.08F
LIMON CO       CLOUDY    29  11  47 NW8       30.16R
$$

...UNOFFICIAL OBSERVATIONS...

CITY           SKY/WX    TMP DP  RH WIND       PRES   REMARKS
COLBY KS       CLEAR     36  21  55 W7        30.04F
LENORA KS        N/A     48  32  54 SW8         N/A
NORTON KS      CLEAR     39  10  30 SW9       29.97
TRENTON NEB      N/A     48  32  54 W6          N/A
KIT CARSON CO    N/A     40  12  31 MISG        N/A
YUMA CO        FAIR      36  14  41 W9        30.06F
$$



USA.gov is the U.S. government's official web portal to all federal, state and local government web resources and services.